Temp
-15 -15 -15 -15 -15 -15 -15 -15 -15 -15 -15 -15 -15 -15 -15 -15 -15 -15 -15 -15 -15 -15 -15 -15 -15 -15 -15 -15 -15 -15 -15 -15 -15 -15 -14 -14 -14 -14 -14 -14 -14 -15
-15 -15 -15 -15 -15 -15 -15 -15 -15 -15 -15 -15 -15 -15 -15 -15 -15 -15 -15 -15 -15 -15 -15 -15 -15 -15 -15 -15 -15 -15 -15 -15 -15 -15 -15 -14 -14 -14 -14 -14 -14 -15
-15 -15 -15 -15 -15 -15 -15 -15 -15 -15 -15 -15 -15 -15 -15 -15 -15 -15 -15 -15 -15 -15 -15 -15 -15 -15 -15 -15 -15 -15 -15 -15 -15 -15 -15 -15 -14 -14 -14 -14 -14 -15
-15 -15 -15 -15 -15 -15 -15 -15 -15 -15 -15 -15 -15 -15 -15 -15 -15 -15 -15 -15 -15 -15 -15 -15 -15 -15 -15 -15 -15 -15 -15 -15 -15 -15 -15 -15 -14 -14 -14 -14 -14 -14
-15 -15 -15 -15 -15 -15 -15 -15 -15 -15 -15 -15 -15 -15 -15 -15 -15 -15 -15 -15 -15 -15 -14 -14 -14 -15 -15 -15 -15 -15 -15 -15 -15 -15 -15 -14 -14 -14 -14 -14 -14 -14
-15 -15 -15 -15 -16 -16 -15 -15 -15 -15 -15 -15 -15 -15 -15 -15 -15 -15 -15 -15 -15 -15 -14 -14 -14 -15 -15 -15 -15 -15 -15 -15 -15 -14 -14 -14 -14 -14 -14 -14 -14 -14
-15 -16 -16 -16 -16 -16 -16 -15 -15 -15 -15 -15 -15 -15 -15 -15 -15 -15 -15 -15 -15 -15 -15 -15 -15 -15 -15 -15 -15 -15 -15 -15 -15 -14 -14 -14 -14 -14 -14 -14 -14 -14
-16 -16 -16 -16 -16 -16 -16 -16 -16 -16 -16 -15 -15 -15 -15 -15 -15 -15 -15 -15 -15 -15 -15 -15 -15 -15 -15 -15 -15 -15 -15 -14 -14 -14 -14 -14 -14 -14 -14 -14 -14 -14
-16 -16 -16 -16 -16 -16 -16 -16 -16 -16 -16 -16 -16 -15 -15 -15 -15 -15 -15 -15 -15 -15 -15 -15 -15 -15 -15 -15 -15 -15 -14 -14 -14 -14 -14 -14 -14 -14 -14 -14 -14 -14
-16 -16 -16 -16 -16 -16 -16 -16 -16 -16 -16 -16 -16 -16 -15 -15 -15 -15 -15 -15 -15 -15 -15 -15 -15 -15 -15 -15 -15 -15 -15 -15 -15 -15 -15 -15 -15 -15 -15 -15 -15 -15
-15 -16 -16 -16 -16 -16 -16 -16 -16 -16 -16 -16 -16 -16 -16 -15 -15 -15 -15 -15 -15 -15 -15 -15 -15 -15 -15 -15 -15 -15 -15 -15 -15 -15 -15 -15 -15 -15 -15 -15 -15 -15
-16 -16 -16 -16 -16 -16 -16 -16 -16 -16 -16 -16 -16 -16 -16 -16 -15 -15 -15 -15 -15 -15 -15 -15 -15 -15 -15 -15 -15 -15 -15 -15 -15 -15 -15 -15 -15 -15 -15 -15 -15 -15
-16 -16 -16 -16 -16 -16 -16 -16 -16 -16 -16 -16 -16 -16 -16 -16 -16 -16 -15 -15 -15 -15 -15 -15 -15 -15 -15 -15 -15 -15 -15 -15 -15 -15 -15 -15 -15 -15 -15 -15 -15 -15
-16 -16 -15 -16 -16 -16 -16 -16 -16 -16 -16 -16 -16 -16 -16 -16 -16 -16 -15 -15 -15 -15 -15 -15 -16 -16 -16 -16 -16 -15 -15 -15 -15 -15 -15 -16 -16 -16 -16 -16 -16 -16
-16 -16 -16 -16 -16 -16 -16 -16 -16 -16 -16 -16 -16 -16 -16 -16 -16 -16 -15 -15 -15 -15 -16 -16 -16 -16 -16 -16 -16 -16 -16 -16 -16 -16 -16 -16 -16 -16 -16 -16 -16 -16
-16 -16 -16 -16 -16 -16 -16 -16 -16 -16 -16 -16 -16 -16 -16 -16 -16 -16 -16 -16 -16 -16 -16 -16 -16 -16 -16 -16 -16 -16 -16 -16 -16 -16 -16 -16 -16 -16 -16 -16 -16 -16
-16 -16 -16 -16 -16 -16 -16 -16 -16 -16 -16 -16 -16 -16 -16 -16 -16 -16 -16 -16 -16 -16 -16 -16 -16 -16 -16 -16 -16 -16 -16 -16 -16 -16 -16 -16 -16 -16 -16 -16 -16 -16
-16 -16 -16 -16 -16 -16 -16 -16 -16 -16 -16 -16 -16 -16 -16 -16 -16 -16 -16 -16 -16 -16 -16 -16 -16 -16 -16 -16 -16 -16 -16 -17 -17 -17 -17 -16 -16 -16 -16 -16 -16 -17
-16 -16 -16 -16 -16 -16 -16 -16 -16 -16 -16 -16 -16 -16 -16 -16 -16 -16 -16 -16 -16 -16 -17 -17 -17 -16 -16 -16 -16 -17 -17 -17 -17 -17 -17 -17 -17 -17 -17 -17 -17 -17
-16 -16 -16 -16 -16 -16 -16 -16 -16 -16 -16 -16 -16 -16 -16 -16 -16 -16 -16 -16 -16 -17 -17 -17 -17 -17 -17 -17 -17 -17 -17 -17 -17 -17 -17 -17 -17 -17 -17 -17 -17 -17
-16 -16 -16 -16 -16 -16 -16 -16 -16 -16 -16 -16 -16 -16 -16 -16 -16 -16 -16 -16 -16 -16 -16 -16 -17 -17 -17 -17 -17 -17 -17 -17 -17 -17 -17 -17 -17 -17 -17 -17 -17 -17
-16 -16 -16 -16 -16 -16 -16 -16 -16 -16 -16 -16 -16 -16 -16 -16 -16 -16 -16 -16 -16 -16 -16 -16 -17 -17 -17 -17 -17 -17 -17 -17 -17 -17 -17 -17 -17 -18 -18 -18 -18 -18
-16 -16 -16 -16 -16 -16 -16 -16 -16 -17 -17 -16 -16 -16 -16 -16 -16 -16 -16 -16 -16 -16 -16 -16 -17 -17 -17 -17 -17 -17 -17 -17 -18 -18 -18 -18 -18 -18 -18 -18 -18 -18
-16 -16 -16 -16 -16 -16 -16 -17 -17 -17 -17 -17 -17 -16 -16 -16 -16 -16 -16 -16 -16 -16 -16 -17 -17 -17 -17 -17 -17 -17 -18 -18 -18 -18 -18 -18 -18 -18 -18 -18 -18 -18
-16 -16 -16 -17 -17 -17 -17 -17 -17 -17 -17 -17 -17 -17 -17 -17 -16 -16 -17 -17 -17 -17 -17 -17 -17 -17 -17 -17 -17 -18 -18 -18 -18 -18 -18 -18 -18 -18 -18 -18 -18 -18
-16 -17 -17 -17 -17 -17 -17 -17 -17 -17 -17 -17 -17 -17 -17 -17 -17 -17 -17 -17 -17 -17 -17 -17 -17 -17 -17 -17 -18 -18 -18 -18 -18 -18 -18 -18 -18 -18 -18 -18 -18 -18
Height
5776 5776 5777 5777 5778 5779 5780 5781 5781 5782 5782 5783 5784 5785 5786 5787 5787 5788 5788 5789 5789 5790 5790 5791 5792 5793 5793 5794 5795 5795 5796 5797 5797 5798 5798 5798 5798 5799 5799 5799 5799 5799
5774 5774 5775 5776 5777 5777 5778 5778 5779 5779 5780 5781 5782 5783 5784 5784 5785 5786 5787 5788 5788 5789 5789 5790 5791 5791 5792 5793 5794 5794 5795 5796 5796 5797 5797 5797 5797 5797 5798 5799 5798 5797
5772 5773 5773 5774 5775 5775 5776 5776 5777 5777 5778 5779 5780 5781 5782 5783 5783 5784 5785 5786 5787 5788 5788 5789 5789 5790 5791 5791 5792 5793 5794 5795 5796 5796 5796 5796 5796 5797 5797 5798 5799 5798
5771 5772 5772 5773 5773 5774 5774 5775 5775 5776 5777 5777 5778 5779 5780 5781 5782 5783 5784 5785 5785 5786 5787 5787 5788 5788 5789 5790 5791 5792 5793 5793 5794 5795 5795 5796 5796 5796 5796 5797 5798 5799
5770 5771 5771 5772 5772 5773 5773 5774 5774 5774 5775 5776 5776 5778 5779 5780 5781 5782 5782 5783 5784 5785 5785 5786 5787 5787 5788 5788 5789 5790 5791 5792 5792 5793 5794 5794 5794 5795 5795 5796 5797 5797
5768 5769 5770 5771 5772 5772 5772 5772 5773 5773 5773 5774 5775 5776 5777 5778 5779 5780 5781 5781 5782 5783 5784 5785 5785 5786 5786 5787 5788 5788 5789 5790 5791 5791 5792 5792 5793 5793 5794 5794 5795 5795
5766 5767 5768 5769 5770 5770 5770 5771 5771 5772 5772 5773 5773 5774 5775 5776 5778 5779 5779 5780 5781 5781 5782 5783 5784 5785 5785 5786 5786 5787 5787 5788 5789 5789 5790 5791 5791 5791 5792 5792 5793 5793
5763 5764 5765 5766 5767 5767 5768 5769 5769 5770 5771 5771 5772 5773 5774 5775 5776 5777 5778 5778 5779 5780 5780 5781 5782 5783 5783 5784 5785 5785 5786 5787 5787 5788 5789 5789 5790 5790 5790 5791 5791 5791
5760 5761 5761 5762 5763 5764 5765 5767 5768 5769 5769 5770 5771 5772 5773 5774 5774 5775 5776 5776 5777 5778 5778 5779 5780 5780 5781 5782 5783 5784 5784 5785 5786 5787 5787 5787 5788 5788 5789 5789 5789 5789
5758 5758 5759 5760 5761 5762 5763 5765 5766 5767 5768 5769 5770 5770 5771 5772 5773 5773 5774 5774 5775 5775 5776 5777 5777 5778 5779 5780 5780 5781 5782 5783 5784 5785 5785 5786 5786 5786 5787 5787 5787 5787
5755 5756 5757 5757 5758 5760 5761 5762 5763 5764 5765 5767 5768 5768 5770 5770 5771 5772 5772 5772 5772 5773 5773 5774 5775 5776 5776 5777 5778 5779 5780 5781 5781 5782 5783 5783 5784 5784 5784 5785 5785 5785
5753 5754 5755 5755 5756 5757 5759 5760 5761 5762 5763 5764 5765 5766 5767 5768 5769 5770 5770 5770 5770 5771 5771 5772 5772 5773 5774 5775 5776 5776 5777 5778 5779 5780 5781 5781 5782 5782 5782 5783 5783 5783
5750 5751 5752 5753 5754 5756 5757 5758 5759 5760 5761 5762 5763 5764 5765 5766 5767 5767 5768 5768 5768 5769 5769 5770 5771 5771 5772 5773 5773 5774 5775 5776 5777 5778 5778 5779 5779 5780 5780 5780 5780 5781
5747 5748 5750 5751 5752 5754 5755 5756 5756 5757 5758 5759 5760 5761 5762 5764 5764 5765 5766 5766 5766 5767 5767 5768 5769 5769 5770 5771 5771 5772 5773 5774 5774 5775 5776 5776 5777 5777 5777 5778 5778 5778
5744 5745 5747 5748 5750 5751 5752 5753 5754 5755 5756 5756 5757 5758 5759 5761 5762 5763 5763 5764 5764 5764 5765 5765 5766 5767 5767 5768 5769 5770 5770 5771 5772 5772 5773 5773 5774 5774 5775 5775 5776 5776
5741 5742 5744 5745 5747 5748 5749 5750 5751 5752 5753 5753 5754 5755 5756 5757 5759 5760 5761 5762 5762 5762 5763 5763 5763 5764 5765 5765 5766 5767 5767 5768 5769 5769 5770 5770 5770 5771 5772 5772 5773 5773
5738 5739 5741 5742 5744 5745 5746 5747 5748 5748 5748 5750 5751 5751 5753 5754 5755 5757 5758 5759 5759 5760 5760 5760 5761 5761 5762 5762 5763 5764 5765 5765 5766 5766 5767 5767 5767 5768 5768 5769 5770 5770
5734 5736 5737 5739 5741 5742 5742 5743 5744 5744 5744 5746 5748 5749 5750 5751 5752 5753 5754 5755 5756 5756 5757 5757 5758 5758 5759 5760 5760 5761 5761 5762 5763 5763 5764 5764 5764 5765 5765 5765 5766 5766
5731 5733 5735 5736 5738 5738 5739 5740 5741 5742 5742 5744 5745 5746 5747 5748 5749 5750 5751 5752 5753 5753 5754 5754 5755 5755 5756 5756 5757 5757 5758 5759 5759 5760 5760 5761 5761 5761 5762 5762 5762 5763
5729 5730 5732 5734 5735 5735 5736 5737 5738 5739 5740 5741 5742 5743 5744 5745 5746 5747 5747 5748 5749 5750 5750 5751 5752 5752 5752 5753 5753 5754 5754 5755 5755 5756 5757 5757 5757 5758 5758 5758 5759 5759
5726 5728 5729 5731 5732 5732 5733 5734 5735 5736 5737 5738 5739 5740 5741 5742 5743 5744 5744 5745 5746 5746 5747 5748 5748 5749 5749 5749 5750 5750 5751 5751 5752 5752 5753 5753 5753 5754 5754 5754 5755 5755
5723 5725 5726 5727 5729 5729 5730 5731 5732 5733 5734 5735 5736 5737 5738 5739 5740 5741 5741 5742 5742 5743 5744 5744 5745 5745 5746 5746 5746 5747 5747 5747 5748 5748 5749 5749 5749 5749 5750 5750 5750 5751
5720 5722 5723 5724 5725 5726 5727 5728 5729 5730 5731 5733 5734 5734 5735 5736 5737 5737 5738 5739 5739 5740 5740 5740 5741 5741 5741 5742 5742 5743 5743 5744 5744 5744 5744 5745 5745 5745 5745 5746 5746 5746
5718 5719 5720 5721 5722 5723 5724 5725 5726 5727 5728 5729 5730 5731 5732 5732 5733 5734 5734 5735 5736 5736 5736 5737 5737 5737 5737 5738 5738 5739 5739 5739 5740 5740 5740 5740 5740 5740 5740 5741 5741 5740
5714 5715 5717 5718 5719 5720 5721 5722 5723 5724 5725 5726 5726 5727 5728 5729 5729 5730 5730 5731 5732 5732 5732 5733 5733 5733 5733 5734 5734 5734 5735 5735 5735 5735 5735 5735 5735 5736 5735 5735 5735 5735
5710 5712 5713 5715 5716 5717 5718 5719 5720 5721 5721 5722 5723 5723 5724 5725 5725 5726 5726 5728 5728 5728 5728 5728 5729 5728 5729 5729 5730 5730 5731 5731 5731 5731 5731 5731 5731 5731 5730 5730 5730 5729
Wind_Speed
14 13 13 12 11 12 12 14 16 18 20 21 21 21 20 20 19 18 17 17 17 17 16 15 15 14 13 13 13 13 13 13 12 13 14 14 15 15 14 14 14 13
16 15 14 13 12 12 13 14 16 18 19 20 19 18 17 17 17 17 16 16 16 16 15 15 15 14 13 12 12 12 12 11 11 12 13 14 14 14 14 13 12 12
17 16 14 13 13 13 13 14 15 16 16 16 16 15 15 16 16 16 16 15 15 15 15 15 15 15 14 13 12 12 12 12 11 11 12 13 14 14 13 12 11 12
18 16 15 14 14 14 13 12 12 12 12 12 12 12 13 14 15 15 15 14 14 14 14 15 15 15 15 15 14 13 13 13 12 12 12 13 14 14 14 13 14 15
17 15 15 15 15 15 13 12 11 11 10 10 11 11 12 13 14 14 14 14 14 13 13 14 14 15 15 15 15 15 15 15 15 14 14 15 15 15 16 16 16 17
16 15 15 16 15 14 14 13 13 12 11 11 12 12 13 13 13 13 14 13 12 11 10 10 11 12 14 15 15 16 16 15 15 14 14 14 14 14 14 14 15 15
17 17 16 17 16 15 15 16 15 14 13 12 12 12 12 11 12 13 14 13 12 10 9 8 8 10 12 13 14 15 14 14 13 12 11 11 11 11 11 11 12 13
20 19 19 19 19 18 18 18 17 16 14 13 12 12 11 11 12 13 14 14 13 12 11 10 10 11 12 13 13 14 13 13 12 11 10 10 10 10 10 11 12 13
22 22 22 22 21 20 20 19 18 16 15 14 13 13 12 12 12 13 14 14 14 15 15 14 14 14 14 14 14 14 14 14 13 12 11 11 11 11 11 12 13 13
23 22 22 22 23 22 21 19 18 17 17 17 16 15 14 13 14 14 14 14 15 15 15 15 15 16 16 16 16 16 16 15 15 14 13 12 12 12 13 14 14 14
23 21 20 20 22 23 21 19 18 18 18 18 18 17 17 16 16 16 16 15 15 14 15 15 16 17 18 18 18 18 18 17 17 16 14 13 14 14 15 15 15 15
24 21 19 19 20 21 20 20 19 19 19 19 18 18 18 18 17 17 17 16 15 15 15 15 16 17 18 19 19 19 19 18 18 17 15 15 15 16 16 16 17 17
24 23 21 19 19 19 20 20 20 20 20 19 19 18 18 18 17 17 17 17 16 16 15 16 17 17 18 18 19 19 19 19 18 17 16 16 16 17 17 18 18 19
24 23 23 21 20 19 19 20 20 20 21 21 20 19 19 19 18 18 18 17 16 16 16 16 17 18 18 19 19 19 19 19 18 17 17 17 18 18 19 19 20 20
26 23 22 22 22 21 20 20 20 19 20 21 22 21 20 20 19 19 18 17 17 16 16 17 18 18 19 19 20 20 20 20 19 19 19 19 19 19 20 20 21 21
28 24 21 22 23 23 23 23 22 22 22 22 23 24 22 21 20 19 19 18 17 17 17 18 18 19 20 20 20 20 20 20 20 20 20 20 20 20 21 21 22 22
27 26 24 23 22 23 24 24 23 25 27 25 22 23 23 22 21 20 19 18 17 17 17 18 19 20 21 21 21 21 21 21 21 21 21 21 22 22 22 23 24 24
25 24 23 23 24 25 26 24 20 20 24 24 21 21 23 22 21 19 18 17 17 17 17 18 19 21 22 23 23 23 23 23 23 23 23 24 24 24 25 25 26 27
25 24 23 23 23 24 24 23 20 18 20 22 21 22 23 22 20 18 17 16 16 17 17 17 18 20 22 24 25 25 26 26 26 26 26 26 26 26 27 27 27 28
26 26 26 24 21 19 19 19 19 18 19 20 20 22 23 22 19 17 17 16 16 17 17 18 19 20 22 24 25 27 28 28 28 28 28 28 28 27 28 28 28 29
25 24 25 24 21 19 18 18 18 19 19 20 20 21 23 22 19 18 18 18 18 18 18 19 19 20 22 24 26 27 29 29 29 29 29 29 29 29 29 29 30 31
24 23 24 24 21 19 19 19 19 19 20 20 20 22 24 23 22 21 20 20 20 20 21 21 21 21 22 24 25 27 29 30 31 31 31 31 30 30 30 31 32 32
24 25 26 24 21 20 20 20 20 20 21 21 22 23 24 23 24 23 22 22 22 22 23 23 23 23 24 25 26 28 29 31 32 32 33 32 32 32 32 33 33 34
25 27 27 24 23 22 22 22 22 22 22 23 24 24 24 24 24 24 23 24 24 24 25 26 26 26 26 27 28 29 30 32 34 34 34 34 34 34 35 35 36 37
28 29 27 25 25 23 22 22 21 21 23 24 25 24 24 25 26 26 26 26 25 26 27 28 28 28 28 30 30 31 32 34 35 36 36 36 36 37 37 38 38 39
28 28 26 25 24 23 22 23 22 23 24 25 25 25 26 27 27 28 28 26 25 27 29 30 31 31 31 31 32 33 34 35 36 38 38 39 39 40 41 42 42 43
Wind_Direction
218 220 224 224 229 236 241 243 243 243 242 242 242 244 249 254 256 254 250 249 248 246 244 241 239 238 236 232 228 228 227 226 229 233 236 238 239 240 243 247 250 248
218 218 219 220 226 233 237 239 239 239 239 241 243 246 248 249 248 247 246 245 244 244 243 242 241 239 238 235 229 226 224 221 222 225 229 236 239 242 244 245 249 253
220 219 219 221 225 228 232 235 237 240 241 243 246 246 244 241 240 241 242 241 241 242 242 242 242 240 240 238 233 226 222 222 224 222 225 234 240 243 246 247 248 251
223 224 224 225 222 221 223 229 235 239 240 241 242 239 232 230 233 238 241 242 241 242 242 240 240 239 239 238 237 234 230 233 239 236 235 243 249 254 258 258 257 255
228 230 231 227 222 220 224 230 237 242 241 238 235 231 226 224 228 235 240 241 241 239 238 237 236 237 238 238 238 239 240 242 246 247 247 251 256 260 262 263 263 262
233 235 234 229 224 226 231 234 237 240 239 236 233 228 225 225 227 230 229 230 230 228 226 228 231 233 236 237 238 239 241 242 245 247 248 250 253 256 258 260 262 263
236 236 233 229 227 230 235 237 239 239 235 232 229 225 220 217 217 216 213 213 218 223 226 229 233 235 235 235 235 236 237 238 239 241 240 243 247 249 252 257 261 264
235 233 230 227 226 230 235 238 241 242 238 233 229 224 218 211 210 210 209 211 217 225 234 241 244 243 238 234 233 233 234 233 231 232 233 236 240 245 251 257 261 264
234 231 229 226 224 226 231 236 239 241 241 239 235 231 227 222 218 218 218 221 225 230 235 239 240 240 237 235 234 233 232 230 229 230 233 237 243 250 257 262 263 263
235 233 230 228 224 224 226 230 235 237 239 240 239 237 235 233 231 230 232 234 235 236 236 235 233 231 232 233 234 234 234 234 235 235 236 240 249 256 259 260 260 260
235 232 230 228 225 223 223 226 231 234 236 237 239 240 239 238 238 238 240 241 240 239 236 234 231 227 227 230 232 234 236 237 238 237 239 246 253 257 257 257 257 257
232 230 229 228 224 221 219 221 226 230 233 234 235 238 238 237 238 240 242 243 242 240 237 234 232 228 227 229 232 235 237 238 238 238 243 251 256 257 257 256 257 256
230 227 228 228 224 219 217 218 222 226 230 232 233 236 238 238 237 238 240 241 242 242 239 234 232 229 229 231 233 236 238 238 239 241 247 253 256 257 257 257 257 256
229 227 228 228 224 221 220 220 222 225 228 231 232 234 238 241 241 238 237 239 241 242 240 235 231 229 229 231 233 235 237 238 241 245 250 254 256 256 257 257 256 257
234 230 229 229 226 226 228 230 232 232 232 233 233 234 237 240 241 240 237 236 239 241 241 236 230 229 229 230 232 234 236 238 242 246 251 254 255 257 258 259 259 259
236 232 232 233 231 234 237 239 243 244 239 236 234 232 233 234 236 238 237 236 238 241 242 239 234 231 231 232 234 236 239 241 245 248 250 252 254 256 258 259 259 259
236 234 238 239 237 241 242 242 250 249 238 233 232 232 231 231 234 239 241 240 241 243 245 244 241 238 237 238 239 241 243 245 248 249 250 251 252 254 255 256 256 256
233 233 239 240 239 242 241 241 251 249 231 223 227 232 232 231 234 240 244 246 247 248 247 246 245 243 243 243 244 245 246 247 249 251 252 253 254 255 256 257 256 256
235 236 239 239 241 243 240 238 243 242 228 223 227 230 230 229 232 239 247 250 252 253 252 252 250 249 248 246 246 247 248 250 251 252 253 254 254 256 257 258 258 257
237 237 235 232 234 236 234 234 238 239 234 231 232 230 226 226 231 241 248 252 255 258 259 260 258 256 254 251 250 250 250 252 253 254 255 254 255 256 257 258 258 258
229 227 224 220 221 229 235 237 238 240 238 235 233 229 225 225 232 241 246 249 254 257 259 261 261 260 258 257 255 254 254 254 254 255 255 255 255 256 256 257 257 257
219 214 213 214 222 237 244 242 239 238 237 234 230 229 229 232 238 243 246 249 252 253 255 257 259 260 261 261 260 258 257 256 255 254 254 255 256 256 257 257 258 259
211 211 214 220 233 245 248 247 242 236 234 234 234 235 237 240 244 245 248 252 254 254 256 257 258 260 261 263 263 262 260 258 256 254 254 254 255 257 258 259 261 262
212 216 221 228 239 247 248 245 241 237 235 236 238 241 243 245 247 248 250 253 255 256 255 256 256 257 259 261 262 263 261 259 256 255 254 254 255 257 259 261 263 265
214 219 224 232 239 243 243 240 239 238 238 237 239 243 245 245 245 246 249 254 257 257 255 254 255 255 257 259 261 262 261 260 258 257 256 256 257 260 263 265 267 268
219 220 223 229 233 235 234 233 233 234 235 235 237 240 243 244 244 245 246 248 251 254 255 255 255 255 256 259 260 261 262 261 261 260 260 260 262 265 267 268 269 269